Scottsdale, AZ

5:06 PM MST on August 18, 2017 (GMT -0700)
Scottsdale

Weather History for KSDL - June, 2013

Change the Weather History Date:

Wednesday, June 26, 2013

  Actual Average Record
Temperature  
Mean Temperature 90 °F -  
Max Temperature 102 °F 101 °F 109 °F (2011)
Min Temperature 78 °F 77 °F 73 °F (1998)
Cooling Degree Days 25    
Growing Degree Days 40 (Base 50)    
Moisture  
Dew Point 34 °F    
Average Humidity 13    
Maximum Humidity 20    
Minimum Humidity 10    
Precipitation  
Precipitation 0.00 in - - ()
Sea Level Pressure  
Sea Level Pressure 29.87 in    
Wind  
Wind Speed 4 mph (South)    
Max Wind Speed 7 mph    
Max Gust Speed -    
Visibility 10 miles    
Events      
Averages and records for this station are not official NWS values.
T = Trace of Precipitation, MM = Missing Value Source: NWS Daily Summary

Daily Weather History Graph

Daily Weather History Graph

Search for Another Location

Airport or City:

Trip Planner

Search our weather history database for the weather conditions in past years. The results will help you decide how hot, cold, wet, or windy it might be!

Date:

Astronomy

Jun. 26, 2013 Rise Set
Actual Time 5:19 AM MST 7:41 PM MST
Civil Twilight 4:50 AM MST 8:10 PM MST
Nautical Twilight 4:14 AM MST 8:46 PM MST
Astronomical Twilight 3:35 AM MST 9:25 PM MST
Moon 10:20 PM MST (6/26) 9:03 AM MST (6/26)
Length of Visible Light 15h 20m
Length of Day
14h 22m
Waning Gibbous, 84% of the Moon is Illuminated
Jun 26
Waning Gibbous
Jun 29
Last Quarter
Jul 8
New
Jul 15
First Quarter
Jul 22
Full

Hourly Weather History & Observations

Time (MST) Temp. Dew Point Humidity Pressure Visibility Wind Dir Wind Speed Gust Speed Precip Events Conditions
12:53 AM 87.1 °F 30.0 °F 13% 29.83 in 10.0 mi North 3.5 mph - N/A   Clear
1:53 AM 84.9 °F 30.0 °F 14% 29.84 in 10.0 mi North 4.6 mph - N/A   Clear
2:53 AM 84.0 °F 28.9 °F 14% 29.84 in 10.0 mi North 5.8 mph - N/A   Clear
3:53 AM 82.0 °F 30.0 °F 15% 29.86 in 10.0 mi Calm Calm - N/A   Clear
4:53 AM 78.1 °F 34.0 °F 20% 29.88 in 10.0 mi Calm Calm - N/A   Clear
5:53 AM 78.1 °F 32.0 °F 19% 29.90 in 10.0 mi SE 3.5 mph - N/A   Clear
6:53 AM 82.0 °F 34.0 °F 18% 29.91 in 10.0 mi SE 3.5 mph - N/A   Clear
7:53 AM 87.1 °F 28.0 °F 12% 29.92 in 10.0 mi ESE 6.9 mph - N/A   Clear
8:53 AM 90.0 °F 26.1 °F 10% 29.94 in 10.0 mi SSE 6.9 mph - N/A   Clear
9:53 AM 93.0 °F 28.0 °F 10% 29.94 in 10.0 mi SSE 6.9 mph - N/A   Clear
10:53 AM 93.9 °F 28.0 °F 10% 29.94 in 10.0 mi SSE 5.8 mph - N/A   Clear
11:53 AM 96.1 °F 32.0 °F 10% 29.93 in 10.0 mi Calm Calm - N/A   Clear
12:53 PM 97.0 °F 37.0 °F 12% 29.91 in 10.0 mi WSW 6.9 mph - N/A   Clear
1:53 PM 99.0 °F 37.9 °F 12% 29.89 in 10.0 mi South 5.8 mph - N/A   Clear
2:53 PM 100.0 °F 37.0 °F 11% 29.87 in 10.0 mi Variable 6.9 mph - N/A   Clear
3:53 PM 102.0 °F 37.9 °F 11% 29.85 in 10.0 mi West 6.9 mph - N/A   Clear
4:53 PM 102.0 °F 36.0 °F 10% 29.83 in 10.0 mi NNW 4.6 mph - N/A   Clear
5:53 PM 100.9 °F 34.0 °F 10% 29.82 in 10.0 mi Calm Calm - N/A   Clear
6:53 PM 100.9 °F 37.9 °F 11% 29.81 in 10.0 mi West 4.6 mph - N/A   Clear
7:53 PM 99.0 °F 37.9 °F 12% 29.82 in 10.0 mi Calm Calm - N/A   Clear
8:53 PM 97.0 °F 37.9 °F 13% 29.82 in 10.0 mi Calm Calm - N/A   Clear
9:53 PM 93.9 °F 41.0 °F 16% 29.84 in 10.0 mi Calm Calm - N/A   Clear
10:53 PM 91.0 °F 43.0 °F 19% 29.86 in 10.0 mi Calm Calm - N/A   Clear
11:53 PM 88.0 °F 42.1 °F 20% 29.87 in 10.0 mi West 4.6 mph - N/A   Clear